| time (UTC) | temp F | wind direction | speed knots | gust knots | rain 1hr in | rain 24hr in | rain mn in | humidity % | barometer mb |
| 20260509201009 | 71 | 219 | 1.7 | 5.2 | 0.00 | 0.00 | 0.00 | 71 | 1015.6 |
| 20260509200504 | 70 | 258 | 1.7 | 5.2 | 0.00 | 0.00 | 0.00 | 73 | 1016.0 |
| 20260509200001 | 69 | 296 | 2.6 | 5.2 | 0.00 | 0.00 | 0.00 | 74 | 1016.0 |
| 20260509195456 | 70 | 269 | 3.5 | 5.2 | 0.00 | 0.00 | 0.00 | 73 | 1016.0 |
| 20260509194955 | 70 | 245 | 2.6 | 5.2 | 0.00 | 0.00 | 0.00 | 72 | 1016.0 |
| 20260509194451 | 70 | 214 | 0.9 | 3.5 | 0.00 | 0.00 | 0.00 | 74 | 1016.0 |
| 20260509193949 | 71 | 291 | 2.6 | 5.2 | 0.00 | 0.00 | 0.00 | 72 | 1016.0 |
| 20260509193448 | 70 | 234 | 0.9 | 5.2 | 0.00 | 0.00 | 0.00 | 74 | 1016.0 |
| 20260509192945 | 69 | 234 | 3.5 | 5.2 | 0.00 | 0.00 | 0.00 | 74 | 1016.0 |
| 20260509192442 | 69 | 204 | 4.3 | 7.0 | 0.00 | 0.00 | 0.00 | 74 | 1016.0 |
| 20260509191937 | 69 | 267 | 2.6 | 3.5 | 0.00 | 0.00 | 0.00 | 74 | 1016.3 |
| 20260509191432 | 70 | 309 | 0.9 | 5.2 | 0.00 | 0.00 | 0.00 | 74 | 1016.3 |
| 20260509190928 | 69 | 244 | 0.9 | 6.1 | 0.00 | 0.00 | 0.00 | 75 | 1016.3 |
| 20260509190426 | 69 | 241 | 0.9 | 5.2 | 0.00 | 0.00 | 0.00 | 75 | 1016.3 |
| 20260509185923 | 69 | 352 | 0.9 | 5.2 | 0.00 | 0.00 | 0.00 | 75 | 1016.6 |
| 20260509185421 | 68 | 296 | 1.7 | 3.5 | 0.00 | 0.00 | 0.00 | 76 | 1016.3 |
| 20260509184917 | 69 | 235 | 3.5 | 6.1 | 0.00 | 0.00 | 0.00 | 75 | 1016.6 |
| 20260509184414 | 68 | 307 | 1.7 | 5.2 | 0.00 | 0.00 | 0.00 | 77 | 1016.3 |
| 20260509183911 | 69 | 304 | 1.7 | 6.1 | 0.00 | 0.00 | 0.00 | 76 | 1016.3 |
| 20260509183405 | 69 | 313 | 1.7 | 2.6 | 0.00 | 0.00 | 0.00 | 75 | 1016.3 |
| 20260509182902 | 69 | 244 | 1.7 | 5.2 | 0.00 | 0.00 | 0.00 | 75 | 1016.3 |
| 20260509182359 | 69 | 239 | 1.7 | 2.6 | 0.00 | 0.00 | 0.00 | 75 | 1016.3 |
| 20260509181856 | 69 | 8 | 0.9 | 2.6 | 0.00 | 0.00 | 0.00 | 76 | 1016.3 |
| 20260509181353 | 68 | 262 | 1.7 | 2.6 | 0.00 | 0.00 | 0.00 | 76 | 1016.6 |
| 20260509180851 | 68 | 333 | 0.9 | 3.5 | 0.00 | 0.00 | 0.00 | 77 | 1016.6 |
| 20260509180346 | 68 | 269 | 0.9 | 2.6 | 0.00 | 0.00 | 0.00 | 78 | 1016.6 |
| 20260509175843 | 67 | 335 | 1.7 | 5.2 | 0.00 | 0.00 | 0.00 | 79 | 1016.6 |
| 20260509175340 | 67 | 13 | 1.7 | 5.2 | 0.00 | 0.00 | 0.00 | 79 | 1016.6 |
| 20260509174836 | 67 | 311 | 1.7 | 3.5 | 0.00 | 0.00 | 0.00 | 79 | 1016.6 |
| 20260509174332 | 67 | 299 | 0.9 | 3.5 | 0.00 | 0.00 | 0.00 | 80 | 1016.6 |
| 20260509173827 | 66 | 216 | 1.7 | 3.5 | 0.00 | 0.00 | 0.00 | 81 | 1016.6 |
| 20260509173323 | 66 | 270 | 2.6 | 5.2 | 0.00 | 0.00 | 0.00 | 81 | 1017.0 |
| 20260509172820 | 66 | 323 | 1.7 | 3.5 | 0.00 | 0.00 | 0.00 | 82 | 1017.0 |
| 20260509172316 | 66 | 233 | 0.9 | 2.6 | 0.00 | 0.00 | 0.00 | 82 | 1016.6 |
| 20260509171812 | 66 | 298 | 1.7 | 2.6 | 0.00 | 0.00 | 0.00 | 82 | 1016.3 |
| 20260509171308 | 66 | 247 | 1.7 | 3.5 | 0.00 | 0.00 | 0.00 | 82 | 1016.3 |
| 20260509170805 | 66 | 302 | 1.7 | 2.6 | 0.00 | 0.00 | 0.00 | 81 | 1016.3 |
| 20260509170301 | 67 | 339 | 0.9 | 2.6 | 0.00 | 0.00 | 0.00 | 80 | 1016.3 |
| 20260509165800 | 66 | 335 | 0.0 | 0.9 | 0.00 | 0.00 | 0.00 | 81 | 1016.3 |
| 20260509165255 | 66 | 351 | 0.0 | 1.7 | 0.00 | 0.00 | 0.00 | 82 | 1016.3 |
| 20260509164751 | 66 | 352 | 0.0 | 1.7 | 0.00 | 0.00 | 0.00 | 81 | 1016.3 |
| 20260509164248 | 66 | 347 | 0.9 | 2.6 | 0.00 | 0.00 | 0.00 | 81 | 1016.3 |
| 20260509163745 | 66 | 350 | 0.0 | 0.0 | 0.00 | 0.00 | 0.00 | 81 | 1016.3 |
| 20260509163241 | 65 | 353 | 0.0 | 0.9 | 0.00 | 0.00 | 0.00 | 82 | 1016.3 |
| 20260509162740 | 65 | 356 | 0.0 | 0.0 | 0.00 | 0.00 | 0.00 | 82 | 1016.3 |
| 20260509162233 | 65 | 14 | 0.0 | 0.0 | 0.00 | 0.00 | 0.00 | 82 | 1016.3 |
| 20260509161729 | 65 | 349 | 0.0 | 0.9 | 0.00 | 0.00 | 0.00 | 82 | 1016.3 |
| 20260509161226 | 65 | 350 | 0.0 | 0.0 | 0.00 | 0.00 | 0.00 | 82 | 1016.6 |
| 20260509160721 | 65 | 352 | 0.0 | 0.0 | 0.00 | 0.00 | 0.00 | 83 | 1016.3 |
| 20260509160218 | 64 | 354 | 0.0 | 0.0 | 0.00 | 0.00 | 0.00 | 84 | 1016.3 |
| 20260509155713 | 64 | 357 | 0.0 | 0.9 | 0.00 | 0.00 | 0.00 | 85 | 1016.3 |
| 20260509155210 | 64 | 358 | 0.0 | 0.9 | 0.00 | 0.00 | 0.00 | 85 | 1016.6 |
| 20260509154706 | 64 | 359 | 0.0 | 0.9 | 0.00 | 0.00 | 0.00 | 86 | 1016.3 |
| 20260509154203 | 63 | 342 | 0.0 | 0.9 | 0.00 | 0.00 | 0.00 | 86 | 1016.6 |
| 20260509153700 | 63 | 351 | 0.0 | 0.0 | 0.00 | 0.00 | 0.00 | 88 | 1016.6 |
| 20260509153156 | 63 | 347 | 0.0 | 0.0 | 0.00 | 0.00 | 0.00 | 88 | 1016.3 |
| 20260509152652 | 63 | 339 | 0.0 | 0.0 | 0.00 | 0.00 | 0.00 | 89 | 1016.6 |
| 20260509152149 | 62 | 339 | 0.9 | 0.9 | 0.00 | 0.00 | 0.00 | 89 | 1016.3 |
| 20260509151646 | 62 | 344 | 0.0 | 0.9 | 0.00 | 0.00 | 0.00 | 89 | 1016.6 |
| 20260509151143 | 62 | 349 | 0.0 | 0.0 | 0.00 | 0.00 | 0.00 | 90 | 1016.3 |
| 20260509150641 | 62 | 342 | 0.0 | 0.9 | 0.00 | 0.00 | 0.00 | 90 | 1016.6 |
| 20260509150139 | 62 | 346 | 0.9 | 1.7 | 0.00 | 0.00 | 0.00 | 90 | 1016.6 |
| 20260509145635 | 62 | 338 | 0.9 | 0.9 | 0.00 | 0.00 | 0.00 | 90 | 1016.3 |
| 20260509145130 | 62 | 344 | 1.7 | 1.7 | 0.00 | 0.00 | 0.00 | 91 | 1016.6 |
| 20260509144627 | 61 | 336 | 0.9 | 0.9 | 0.00 | 0.00 | 0.00 | 91 | 1016.3 |
| 20260509144124 | 61 | 319 | 0.9 | 1.7 | 0.00 | 0.00 | 0.00 | 91 | 1016.3 |
| 20260509143621 | 61 | 343 | 0.9 | 0.9 | 0.00 | 0.00 | 0.00 | 91 | 1016.6 |
| 20260509143119 | 61 | 344 | 0.0 | 0.9 | 0.00 | 0.00 | 0.00 | 91 | 1016.3 |
| 20260509142614 | 61 | 344 | 0.0 | 0.0 | 0.00 | 0.00 | 0.00 | 91 | 1016.3 |
| 20260509142111 | 61 | 340 | 0.0 | 0.0 | 0.00 | 0.00 | 0.00 | 91 | 1016.3 |
| 20260509141607 | 61 | 342 | 0.0 | 0.9 | 0.00 | 0.00 | 0.00 | 92 | 1016.3 |
| 20260509141103 | 61 | 348 | 0.0 | 0.9 | 0.00 | 0.00 | 0.00 | 92 | 1016.3 |
| 20260509140600 | 60 | 345 | 0.0 | 0.9 | 0.00 | 0.00 | 0.00 | 92 | 1016.3 |
| 20260509140058 | 60 | 349 | 0.0 | 0.9 | 0.00 | 0.00 | 0.00 | 92 | 1016.3 |
| 20260509135555 | 60 | 348 | 0.0 | 0.0 | 0.00 | 0.00 | 0.00 | 92 | 1016.3 |
| 20260509135053 | 60 | 335 | 0.0 | 0.9 | 0.00 | 0.00 | 0.00 | 92 | 1016.3 |
| 20260509134549 | 60 | 350 | 0.9 | 0.9 | 0.00 | 0.00 | 0.00 | 92 | 1016.0 |
| 20260509134047 | 60 | 345 | 0.0 | 1.7 | 0.00 | 0.00 | 0.00 | 92 | 1016.3 |
| 20260509133544 | 60 | 339 | 1.7 | 1.7 | 0.00 | 0.00 | 0.00 | 92 | 1016.3 |
| 20260509133042 | 60 | 334 | 0.9 | 0.9 | 0.00 | 0.00 | 0.00 | 92 | 1016.0 |
| 20260509132540 | 60 | 338 | 0.0 | 1.7 | 0.00 | 0.00 | 0.00 | 92 | 1016.0 |
| 20260509132038 | 60 | 341 | 1.7 | 1.7 | 0.00 | 0.00 | 0.00 | 92 | 1016.0 |
| 20260509131533 | 60 | 332 | 1.7 | 1.7 | 0.00 | 0.00 | 0.00 | 92 | 1016.0 |
| 20260509131031 | 60 | 340 | 0.9 | 0.9 | 0.00 | 0.00 | 0.00 | 91 | 1016.0 |
| 20260509130526 | 60 | 350 | 0.0 | 0.9 | 0.00 | 0.00 | 0.00 | 91 | 1016.0 |
| 20260509130023 | 61 | 337 | 0.0 | 0.9 | 0.00 | 0.00 | 0.00 | 91 | 1015.6 |
| 20260509125520 | 61 | 346 | 0.9 | 1.7 | 0.00 | 0.00 | 0.00 | 90 | 1016.0 |
| 20260509125016 | 61 | 321 | 1.7 | 1.7 | 0.00 | 0.00 | 0.00 | 90 | 1016.0 |
| 20260509124513 | 61 | 345 | 0.9 | 0.9 | 0.00 | 0.00 | 0.00 | 90 | 1016.0 |
| 20260509124010 | 62 | 347 | 1.7 | 1.7 | 0.00 | 0.00 | 0.00 | 89 | 1016.0 |
| 20260509123508 | 62 | 0 | 0.0 | 0.9 | 0.00 | 0.00 | 0.00 | 88 | 1016.0 |
| 20260509123004 | 62 | 7 | 0.9 | 1.7 | 0.00 | 0.00 | 0.00 | 88 | 1015.6 |
| 20260509122500 | 62 | 8 | 0.0 | 0.0 | 0.00 | 0.00 | 0.00 | 88 | 1016.0 |
| 20260509121957 | 62 | 12 | 0.0 | 0.0 | 0.00 | 0.00 | 0.00 | 88 | 1015.6 |
| 20260509121454 | 61 | 10 | 0.0 | 1.7 | 0.00 | 0.00 | 0.00 | 88 | 1015.6 |
| 20260509120952 | 61 | 15 | 0.9 | 0.9 | 0.00 | 0.00 | 0.00 | 88 | 1015.6 |
| 20260509120450 | 61 | 13 | 0.0 | 1.7 | 0.00 | 0.00 | 0.00 | 88 | 1015.6 |
| 20260509115948 | 61 | 11 | 0.0 | 0.9 | 0.00 | 0.00 | 0.00 | 88 | 1016.0 |
| 20260509115445 | 61 | 10 | 0.0 | 0.9 | 0.00 | 0.00 | 0.00 | 89 | 1016.0 |
| 20260509114942 | 61 | 12 | 0.0 | 1.7 | 0.00 | 0.00 | 0.00 | 89 | 1015.6 |
| 20260509114440 | 61 | 12 | 0.9 | 0.9 | 0.00 | 0.00 | 0.00 | 89 | 1016.0 |
| 20260509113939 | 61 | 11 | 0.0 | 0.9 | 0.00 | 0.00 | 0.00 | 89 | 1016.0 |
| 20260509113436 | 61 | 10 | 0.0 | 0.0 | 0.00 | 0.00 | 0.00 | 89 | 1016.0 |
| 20260509112933 | 61 | 14 | 0.0 | 1.7 | 0.00 | 0.00 | 0.00 | 89 | 1015.6 |
| 20260509112430 | 61 | 11 | 0.0 | 0.0 | 0.00 | 0.00 | 0.00 | 89 | 1016.0 |
| 20260509111927 | 61 | 13 | 0.0 | 0.0 | 0.00 | 0.00 | 0.00 | 89 | 1016.0 |
| 20260509111425 | 61 | 16 | 0.0 | 1.7 | 0.00 | 0.00 | 0.00 | 89 | 1016.0 |
| 20260509110922 | 61 | 9 | 0.0 | 0.9 | 0.00 | 0.00 | 0.00 | 89 | 1015.6 |
| 20260509110417 | 61 | 13 | 0.0 | 0.9 | 0.00 | 0.00 | 0.00 | 89 | 1015.6 |
| 20260509105916 | 61 | 11 | 0.9 | 0.9 | 0.00 | 0.00 | 0.00 | 89 | 1015.6 |
| 20260509105414 | 61 | 12 | 0.0 | 1.7 | 0.00 | 0.00 | 0.00 | 89 | 1016.0 |
| 20260509104911 | 61 | 16 | 0.9 | 0.9 | 0.00 | 0.00 | 0.00 | 90 | 1016.0 |
| 20260509104408 | 61 | 11 | 0.0 | 0.0 | 0.00 | 0.00 | 0.00 | 90 | 1016.0 |
| 20260509103905 | 61 | 10 | 0.0 | 0.0 | 0.00 | 0.00 | 0.00 | 90 | 1016.0 |
| 20260509103402 | 61 | 10 | 0.0 | 0.0 | 0.00 | 0.00 | 0.00 | 90 | 1016.0 |
| 20260509102901 | 60 | 12 | 0.0 | 0.0 | 0.00 | 0.00 | 0.00 | 90 | 1016.0 |
| 20260509102358 | 60 | 13 | 0.0 | 0.0 | 0.00 | 0.00 | 0.00 | 90 | 1016.0 |
| 20260509101853 | 60 | 11 | 0.0 | 0.0 | 0.00 | 0.00 | 0.00 | 90 | 1016.0 |
| 20260509101349 | 60 | 12 | 0.0 | 0.0 | 0.00 | 0.00 | 0.00 | 90 | 1016.0 |
| 20260509100848 | 60 | 16 | 0.0 | 0.9 | 0.00 | 0.00 | 0.00 | 90 | 1016.0 |
| 20260509100344 | 60 | 23 | 0.0 | 1.7 | 0.00 | 0.00 | 0.00 | 90 | 1016.0 |
| 20260509095841 | 60 | 11 | 0.0 | 0.0 | 0.00 | 0.00 | 0.00 | 90 | 1016.0 |
| 20260509095339 | 60 | 17 | 0.0 | 1.7 | 0.00 | 0.00 | 0.00 | 90 | 1016.3 |
| 20260509094836 | 60 | 9 | 0.0 | 0.9 | 0.00 | 0.00 | 0.00 | 90 | 1016.0 |
| 20260509094332 | 60 | 12 | 0.0 | 0.0 | 0.00 | 0.00 | 0.00 | 90 | 1016.0 |
| 20260509093830 | 60 | 11 | 0.0 | 0.9 | 0.00 | 0.00 | 0.00 | 90 | 1016.0 |
| 20260509093326 | 60 | 12 | 0.0 | 0.0 | 0.00 | 0.00 | 0.00 | 90 | 1016.3 |
| 20260509092825 | 60 | 9 | 0.0 | 0.9 | 0.00 | 0.00 | 0.00 | 90 | 1016.3 |
| 20260509092323 | 60 | 8 | 0.0 | 0.0 | 0.00 | 0.00 | 0.00 | 90 | 1016.3 |
| 20260509091821 | 60 | 7 | 0.0 | 0.0 | 0.00 | 0.00 | 0.00 | 90 | 1016.3 |
| 20260509091317 | 60 | 7 | 0.0 | 0.0 | 0.00 | 0.00 | 0.00 | 90 | 1016.3 |
| 20260509090815 | 60 | 3 | 0.0 | 0.0 | 0.00 | 0.00 | 0.00 | 90 | 1016.3 |
| 20260509090312 | 60 | 2 | 0.0 | 0.0 | 0.00 | 0.00 | 0.00 | 91 | 1016.3 |
| 20260509085809 | 60 | 3 | 0.0 | 0.0 | 0.00 | 0.00 | 0.00 | 91 | 1016.3 |
| 20260509085307 | 60 | 2 | 0.0 | 0.0 | 0.00 | 0.00 | 0.00 | 91 | 1016.3 |
| 20260509084803 | 60 | 354 | 0.0 | 0.0 | 0.00 | 0.00 | 0.00 | 91 | 1016.3 |
| 20260509084300 | 60 | 338 | 0.0 | 0.0 | 0.00 | 0.00 | 0.00 | 91 | 1016.6 |
| 20260509083757 | 60 | 342 | 0.0 | 0.0 | 0.00 | 0.00 | 0.00 | 91 | 1016.6 |
| 20260509083254 | 60 | 336 | 0.0 | 0.0 | 0.00 | 0.00 | 0.00 | 91 | 1016.3 |
| 20260509082750 | 60 | 334 | 0.0 | 0.0 | 0.00 | 0.00 | 0.00 | 91 | 1016.6 |
| 20260509082247 | 60 | 335 | 0.0 | 0.0 | 0.00 | 0.00 | 0.00 | 91 | 1016.6 |
| 20260509081744 | 60 | 335 | 0.0 | 0.0 | 0.00 | 0.00 | 0.00 | 91 | 1016.6 |
| 20260509081242 | 60 | 332 | 0.0 | 0.0 | 0.00 | 0.00 | 0.00 | 91 | 1016.6 |
| 20260509080740 | 60 | 328 | 0.0 | 0.9 | 0.00 | 0.00 | 0.00 | 91 | 1016.6 |
| 20260509080237 | 60 | 323 | 0.0 | 0.0 | 0.00 | 0.00 | 0.00 | 91 | 1017.0 |
| 20260509075735 | 60 | 330 | 0.0 | 0.9 | 0.00 | 0.00 | 0.00 | 91 | 1017.0 |
| 20260509075232 | 60 | 330 | 0.0 | 0.0 | 0.00 | 0.00 | 0.00 | 91 | 1017.0 |
| 20260509074729 | 60 | 332 | 0.0 | 0.0 | 0.00 | 0.00 | 0.00 | 91 | 1016.6 |
| 20260509074227 | 60 | 330 | 0.0 | 0.0 | 0.00 | 0.00 | 0.00 | 91 | 1017.0 |
| 20260509073723 | 60 | 336 | 0.0 | 0.0 | 0.00 | 0.00 | 0.00 | 91 | 1017.0 |
| 20260509073219 | 60 | 341 | 0.0 | 0.0 | 0.00 | 0.00 | 0.00 | 91 | 1017.0 |
| 20260509072716 | 60 | 345 | 0.0 | 0.0 | 0.00 | 0.00 | 0.00 | 91 | 1017.0 |
| 20260509072213 | 60 | 348 | 0.0 | 0.0 | 0.00 | 0.00 | 0.00 | 91 | 1017.0 |
| 20260509071709 | 60 | 344 | 0.0 | 0.0 | 0.00 | 0.00 | 0.00 | 91 | 1017.0 |
| 20260509071207 | 60 | 338 | 0.0 | 0.0 | 0.00 | 0.00 | 0.00 | 91 | 1017.3 |
| 20260509070704 | 59 | 335 | 0.0 | 0.0 | 0.00 | 0.00 | 0.00 | 91 | 1017.0 |
| 20260509070200 | 59 | 337 | 0.0 | 0.9 | 0.00 | 0.00 | 0.00 | 91 | 1017.0 |
| 20260509065656 | 59 | 321 | 0.9 | 0.9 | 0.00 | 0.00 | 0.00 | 91 | 1017.3 |
| 20260509065152 | 59 | 315 | 0.0 | 0.0 | 0.00 | 0.00 | 0.00 | 91 | 1017.0 |
| 20260509064649 | 59 | 324 | 0.0 | 1.7 | 0.00 | 0.00 | 0.00 | 91 | 1017.0 |
| 20260509064147 | 59 | 302 | 0.9 | 0.9 | 0.00 | 0.00 | 0.00 | 91 | 1017.0 |
| 20260509063644 | 60 | 338 | 0.0 | 0.0 | 0.00 | 0.00 | 0.00 | 91 | 1017.0 |
| 20260509063140 | 59 | 325 | 0.0 | 0.9 | 0.00 | 0.00 | 0.00 | 91 | 1017.3 |
| 20260509062637 | 60 | 297 | 0.0 | 0.0 | 0.00 | 0.00 | 0.00 | 91 | 1017.0 |
| 20260509062135 | 60 | 315 | 0.9 | 0.9 | 0.00 | 0.00 | 0.00 | 91 | 1017.0 |
| 20260509061631 | 60 | 326 | 0.0 | 0.0 | 0.00 | 0.00 | 0.00 | 91 | 1017.3 |
| 20260509061129 | 60 | 335 | 0.0 | 0.0 | 0.00 | 0.00 | 0.00 | 91 | 1017.0 |
| 20260509060626 | 59 | 346 | 0.0 | 0.0 | 0.00 | 0.00 | 0.00 | 91 | 1017.0 |
| 20260509060122 | 60 | 325 | 0.0 | 0.0 | 0.00 | 0.00 | 0.00 | 91 | 1017.3 |
| 20260509055618 | 59 | 341 | 0.0 | 0.0 | 0.00 | 0.00 | 0.00 | 91 | 1017.3 |
| 20260509055114 | 59 | 55 | 0.0 | 0.0 | 0.00 | 0.00 | 0.00 | 91 | 1017.3 |
| 20260509054611 | 59 | 80 | 0.0 | 0.9 | 0.00 | 0.00 | 0.00 | 91 | 1017.3 |
| 20260509054108 | 60 | 259 | 0.9 | 1.7 | 0.00 | 0.00 | 0.00 | 91 | 1017.3 |
| 20260509053607 | 60 | 280 | 0.9 | 1.7 | 0.00 | 0.00 | 0.00 | 91 | 1017.3 |
| 20260509053103 | 60 | 333 | 0.9 | 0.9 | 0.00 | 0.00 | 0.00 | 91 | 1017.0 |
| 20260509052601 | 60 | 262 | 0.0 | 0.9 | 0.00 | 0.00 | 0.00 | 91 | 1017.3 |
| 20260509052059 | 60 | 281 | 0.9 | 0.9 | 0.00 | 0.00 | 0.00 | 90 | 1017.3 |
| 20260509051556 | 60 | 251 | 0.0 | 0.9 | 0.00 | 0.00 | 0.00 | 90 | 1017.3 |
| 20260509051053 | 60 | 314 | 0.0 | 0.0 | 0.00 | 0.00 | 0.00 | 90 | 1017.0 |
| 20260509050550 | 60 | 239 | 0.9 | 1.7 | 0.00 | 0.00 | 0.00 | 90 | 1017.3 |
| 20260509050046 | 60 | 321 | 0.9 | 0.9 | 0.00 | 0.00 | 0.00 | 90 | 1017.0 |
| 20260509045544 | 60 | 333 | 0.0 | 0.9 | 0.00 | 0.00 | 0.00 | 90 | 1017.3 |
| 20260509045041 | 60 | 326 | 0.0 | 0.9 | 0.00 | 0.00 | 0.00 | 90 | 1017.3 |
| 20260509044538 | 60 | 330 | 0.0 | 1.7 | 0.00 | 0.00 | 0.00 | 90 | 1017.0 |
| 20260509044036 | 60 | 251 | 0.9 | 1.7 | 0.00 | 0.00 | 0.00 | 90 | 1017.3 |
| 20260509043532 | 60 | 272 | 0.0 | 0.9 | 0.00 | 0.00 | 0.00 | 90 | 1017.0 |
| 20260509043028 | 60 | 312 | 0.9 | 0.9 | 0.00 | 0.00 | 0.00 | 90 | 1017.0 |
| 20260509042524 | 60 | 327 | 0.0 | 0.9 | 0.00 | 0.00 | 0.00 | 89 | 1017.0 |
| 20260509042020 | 60 | 278 | 0.9 | 2.6 | 0.00 | 0.00 | 0.00 | 89 | 1017.0 |
| 20260509041517 | 60 | 163 | 0.9 | 0.9 | 0.00 | 0.00 | 0.00 | 89 | 1017.0 |
| 20260509041015 | 60 | 275 | 0.9 | 1.7 | 0.00 | 0.00 | 0.00 | 89 | 1017.0 |
| 20260509040513 | 60 | 332 | 0.0 | 0.9 | 0.00 | 0.00 | 0.00 | 89 | 1017.0 |
| 20260509040010 | 60 | 235 | 1.7 | 1.7 | 0.00 | 0.00 | 0.00 | 88 | 1017.0 |
| 20260509035507 | 60 | 299 | 0.9 | 1.7 | 0.00 | 0.00 | 0.00 | 89 | 1017.0 |
| 20260509035003 | 61 | 299 | 0.9 | 1.7 | 0.00 | 0.00 | 0.00 | 88 | 1017.0 |
| 20260509034502 | 61 | 319 | 0.0 | 0.9 | 0.00 | 0.00 | 0.00 | 89 | 1016.6 |
| 20260509033958 | 61 | 286 | 0.9 | 1.7 | 0.00 | 0.00 | 0.00 | 89 | 1016.6 |
| 20260509033454 | 60 | 325 | 0.9 | 1.7 | 0.00 | 0.00 | 0.00 | 89 | 1016.6 |
| 20260509032951 | 61 | 232 | 0.9 | 1.7 | 0.00 | 0.00 | 0.00 | 89 | 1016.6 |
| 20260509032449 | 60 | 334 | 0.9 | 1.7 | 0.00 | 0.00 | 0.00 | 89 | 1016.6 |
| 20260509031946 | 61 | 336 | 0.0 | 2.6 | 0.00 | 0.00 | 0.00 | 88 | 1016.3 |
| 20260509031443 | 61 | 342 | 0.0 | 0.9 | 0.00 | 0.00 | 0.00 | 88 | 1016.3 |
| 20260509030941 | 61 | 160 | 0.0 | 2.6 | 0.00 | 0.00 | 0.00 | 88 | 1016.3 |
| 20260509030439 | 61 | 343 | 0.0 | 0.9 | 0.00 | 0.00 | 0.00 | 88 | 1016.0 |
| 20260509025935 | 61 | 237 | 0.9 | 1.7 | 0.00 | 0.00 | 0.00 | 88 | 1016.0 |
| 20260509025431 | 61 | 331 | 0.9 | 0.9 | 0.00 | 0.00 | 0.00 | 88 | 1016.3 |
| 20260509024926 | 61 | 250 | 1.7 | 3.5 | 0.00 | 0.00 | 0.00 | 88 | 1016.3 |
| 20260509024423 | 61 | 340 | 0.0 | 0.0 | 0.00 | 0.00 | 0.00 | 88 | 1016.3 |
| 20260509023920 | 61 | 330 | 1.7 | 3.5 | 0.00 | 0.00 | 0.00 | 87 | 1016.3 |
| 20260509023417 | 62 | 256 | 1.7 | 2.6 | 0.00 | 0.00 | 0.00 | 87 | 1016.0 |
| 20260509022914 | 62 | 250 | 0.9 | 1.7 | 0.00 | 0.00 | 0.00 | 87 | 1016.0 |
| 20260509022411 | 62 | 326 | 0.9 | 2.6 | 0.00 | 0.00 | 0.00 | 87 | 1016.0 |
| 20260509021908 | 62 | 201 | 1.7 | 2.6 | 0.00 | 0.00 | 0.00 | 87 | 1016.0 |
| 20260509021405 | 62 | 278 | 0.0 | 3.5 | 0.00 | 0.00 | 0.00 | 87 | 1016.0 |
| 20260509020902 | 62 | 293 | 1.7 | 1.7 | 0.00 | 0.00 | 0.00 | 87 | 1016.0 |
| 20260509020401 | 62 | 322 | 0.9 | 2.6 | 0.00 | 0.00 | 0.00 | 87 | 1016.0 |
| 20260509015857 | 62 | 325 | 0.0 | 0.9 | 0.00 | 0.00 | 0.00 | 87 | 1016.0 |
| 20260509015356 | 62 | 280 | 2.6 | 5.2 | 0.00 | 0.00 | 0.00 | 86 | 1016.0 |
| 20260509014852 | 62 | 323 | 0.9 | 2.6 | 0.00 | 0.00 | 0.00 | 86 | 1016.0 |
| 20260509014349 | 62 | 333 | 0.9 | 2.6 | 0.00 | 0.00 | 0.00 | 86 | 1016.0 |
| 20260509013845 | 62 | 301 | 0.9 | 3.5 | 0.00 | 0.00 | 0.00 | 86 | 1016.0 |
| 20260509013342 | 62 | 348 | 1.7 | 3.5 | 0.00 | 0.00 | 0.00 | 85 | 1016.0 |
| 20260509012838 | 63 | 228 | 1.7 | 2.6 | 0.00 | 0.00 | 0.00 | 85 | 1016.0 |
| 20260509012335 | 63 | 301 | 0.9 | 3.5 | 0.00 | 0.00 | 0.00 | 85 | 1016.0 |
| 20260509011832 | 63 | 241 | 1.7 | 3.5 | 0.00 | 0.00 | 0.00 | 85 | 1016.0 |
| 20260509011330 | 63 | 265 | 2.6 | 5.2 | 0.00 | 0.00 | 0.00 | 85 | 1016.0 |
| 20260509010827 | 63 | 270 | 2.6 | 3.5 | 0.00 | 0.00 | 0.00 | 85 | 1016.0 |
| 20260509010325 | 63 | 227 | 1.7 | 2.6 | 0.00 | 0.00 | 0.00 | 84 | 1016.3 |
| 20260509005821 | 63 | 232 | 2.6 | 5.2 | 0.00 | 0.00 | 0.00 | 83 | 1016.0 |
| 20260509005319 | 63 | 257 | 2.6 | 5.2 | 0.00 | 0.00 | 0.00 | 83 | 1016.0 |
| 20260509004814 | 64 | 310 | 0.9 | 3.5 | 0.00 | 0.00 | 0.00 | 84 | 1016.0 |
| 20260509004310 | 64 | 297 | 1.7 | 3.5 | 0.00 | 0.00 | 0.00 | 83 | 1016.0 |
| 20260509003808 | 64 | 290 | 1.7 | 5.2 | 0.00 | 0.00 | 0.00 | 83 | 1016.0 |
| 20260509003306 | 64 | 211 | 2.6 | 7.0 | 0.00 | 0.00 | 0.00 | 83 | 1016.0 |
| 20260509002803 | 64 | 299 | 1.7 | 7.0 | 0.00 | 0.00 | 0.00 | 83 | 1016.0 |
| 20260509002301 | 64 | 305 | 2.6 | 6.1 | 0.00 | 0.00 | 0.00 | 82 | 1016.0 |
| 20260509001758 | 64 | 234 | 2.6 | 6.1 | 0.00 | 0.00 | 0.00 | 82 | 1016.0 |
| 20260509001254 | 64 | 219 | 4.3 | 6.1 | 0.00 | 0.00 | 0.00 | 82 | 1016.0 |
| 20260509000751 | 64 | 242 | 3.5 | 5.2 | 0.00 | 0.00 | 0.00 | 82 | 1016.0 |
| 20260509000248 | 65 | 316 | 1.7 | 5.2 | 0.00 | 0.00 | 0.00 | 82 | 1016.0 |
| 20260508235745 | 65 | 296 | 1.7 | 5.2 | 0.00 | 0.00 | 0.00 | 81 | 1016.0 |
| 20260508235242 | 65 | 208 | 3.5 | 6.1 | 0.00 | 0.00 | 0.00 | 81 | 1016.0 |
| 20260508234739 | 65 | 253 | 1.7 | 6.1 | 0.00 | 0.00 | 0.00 | 82 | 1016.0 |
| 20260508234235 | 66 | 249 | 2.6 | 5.2 | 0.00 | 0.00 | 0.00 | 80 | 1016.0 |
| 20260508233729 | 66 | 226 | 3.5 | 5.2 | 0.00 | 0.00 | 0.00 | 79 | 1016.3 |
| 20260508233227 | 66 | 211 | 2.6 | 5.2 | 0.00 | 0.00 | 0.00 | 79 | 1015.6 |
| 20260508232724 | 66 | 240 | 1.7 | 3.5 | 0.00 | 0.00 | 0.00 | 80 | 1016.0 |
| 20260508232220 | 66 | 255 | 3.5 | 5.2 | 0.00 | 0.00 | 0.00 | 78 | 1016.0 |
| 20260508231718 | 67 | 336 | 0.9 | 1.7 | 0.00 | 0.00 | 0.00 | 77 | 1016.3 |
| 20260508231215 | 68 | 272 | 2.6 | 3.5 | 0.00 | 0.00 | 0.00 | 76 | 1016.3 |
| 20260508230712 | 67 | 340 | 0.9 | 5.2 | 0.00 | 0.00 | 0.00 | 78 | 1016.3 |
| 20260508230208 | 68 | 257 | 2.6 | 6.1 | 0.00 | 0.00 | 0.00 | 75 | 1016.3 |
| 20260508225706 | 67 | 200 | 1.7 | 6.1 | 0.00 | 0.00 | 0.00 | 77 | 1016.6 |
| 20260508225202 | 68 | 281 | 5.2 | 7.0 | 0.00 | 0.00 | 0.00 | 74 | 1016.6 |
| 20260508224700 | 69 | 338 | 1.7 | 6.1 | 0.00 | 0.00 | 0.00 | 74 | 1016.3 |
| 20260508224157 | 69 | 324 | 1.7 | 2.6 | 0.00 | 0.00 | 0.00 | 74 | 1016.6 |
| 20260508223655 | 69 | 268 | 2.6 | 3.5 | 0.00 | 0.00 | 0.00 | 73 | 1017.0 |
| 20260508223152 | 69 | 332 | 1.7 | 5.2 | 0.00 | 0.00 | 0.00 | 73 | 1016.6 |
| 20260508222649 | 69 | 326 | 0.9 | 5.2 | 0.00 | 0.00 | 0.00 | 72 | 1016.6 |
| 20260508222147 | 69 | 318 | 2.6 | 6.1 | 0.00 | 0.00 | 0.00 | 73 | 1016.6 |
| 20260508221642 | 70 | 19 | 3.5 | 3.5 | 0.00 | 0.00 | 0.00 | 70 | 1017.0 |
| 20260508221138 | 71 | 328 | 0.9 | 2.6 | 0.00 | 0.00 | 0.00 | 69 | 1016.6 |
| 20260508220635 | 70 | 329 | 0.9 | 3.5 | 0.00 | 0.00 | 0.00 | 71 | 1017.0 |
| 20260508220132 | 71 | 322 | 1.7 | 5.2 | 0.00 | 0.00 | 0.00 | 71 | 1017.0 |
| 20260508215628 | 69 | 243 | 1.7 | 5.2 | 0.00 | 0.00 | 0.00 | 73 | 1017.0 |
| 20260508215125 | 70 | 271 | 2.6 | 6.1 | 0.00 | 0.00 | 0.00 | 71 | 1017.0 |
| 20260508214622 | 71 | 276 | 3.5 | 6.1 | 0.00 | 0.00 | 0.00 | 69 | 1017.3 |
| 20260508214119 | 69 | 306 | 2.6 | 3.5 | 0.00 | 0.00 | 0.00 | 72 | 1017.3 |
| 20260508213616 | 70 | 301 | 0.9 | 5.2 | 0.00 | 0.00 | 0.00 | 72 | 1017.3 |
| 20260508213112 | 70 | 317 | 0.9 | 1.7 | 0.00 | 0.00 | 0.00 | 71 | 1017.3 |
| 20260508212609 | 70 | 247 | 2.6 | 5.2 | 0.00 | 0.00 | 0.00 | 71 | 1017.3 |
| 20260508212105 | 70 | 238 | 3.5 | 5.2 | 0.00 | 0.00 | 0.00 | 71 | 1017.3 |
| 20260508211600 | 72 | 244 | 2.6 | 2.6 | 0.00 | 0.00 | 0.00 | 68 | 1017.3 |
| 20260508211057 | 72 | 344 | 0.0 | 2.6 | 0.00 | 0.00 | 0.00 | 69 | 1017.3 |
| 20260508210554 | 71 | 313 | 1.7 | 2.6 | 0.00 | 0.00 | 0.00 | 70 | 1017.6 |
| 20260508210051 | 71 | 299 | 1.7 | 5.2 | 0.00 | 0.00 | 0.00 | 69 | 1017.6 |
| 20260508205548 | 70 | 334 | 0.9 | 3.5 | 0.00 | 0.00 | 0.00 | 72 | 1017.6 |
| 20260508205044 | 70 | 309 | 4.3 | 7.0 | 0.00 | 0.00 | 0.00 | 71 | 1017.6 |
| 20260508204541 | 70 | 298 | 2.6 | 6.1 | 0.00 | 0.00 | 0.00 | 71 | 1017.6 |
| 20260508204037 | 69 | 326 | 0.9 | 6.1 | 0.00 | 0.00 | 0.00 | 75 | 1017.6 |
| 20260508203533 | 69 | 294 | 1.7 | 3.5 | 0.00 | 0.00 | 0.00 | 74 | 1018.0 |
| 20260508203029 | 69 | 340 | 2.6 | 3.5 | 0.00 | 0.00 | 0.00 | 73 | 1017.6 |
| 20260508202526 | 68 | 270 | 3.5 | 6.1 | 0.00 | 0.00 | 0.00 | 75 | 1018.0 |
| 20260508202023 | 69 | 323 | 1.7 | 6.1 | 0.00 | 0.00 | 0.00 | 73 | 1018.0 |
| 20260508201520 | 69 | 238 | 1.7 | 3.5 | 0.00 | 0.00 | 0.00 | 74 | 1018.0 |